This is the latest recevied weather packets stored in our database for station/object PA2JOK. If no packets are shown the sender has not sent any weather packets the latest 10 day(s).
| Time | Temp. | Humidity | Pressure | Rain* | Wind** | Luminosity | Snow |
|---|---|---|---|---|---|---|---|
| 1777695482 | 12.22° C | 49% | 1016.3 hPa | 0 mm | - | - | - |
| 1777694582 | 12.22° C | 49% | 1016.4 hPa | 0 mm | - | - | - |
| 1777693683 | 12.22° C | 49% | 1016.4 hPa | 0 mm | - | - | - |
| 1777692783 | 12.22° C | 50% | 1016.5 hPa | 0 mm | - | - | - |
| 1777691882 | 12.78° C | 48% | 1016.7 hPa | 0 mm | - | - | - |
| 1777690983 | 12.78° C | 48% | 1016.6 hPa | 0 mm | - | - | - |
| 1777690083 | 12.78° C | 48% | 1016.6 hPa | 0 mm | - | - | - |
| 1777689182 | 12.78° C | 49% | 1016.8 hPa | 0 mm | - | - | - |
| 1777688283 | 12.78° C | 48% | 1017.1 hPa | 0 mm | - | - | - |
| 1777687382 | 12.78° C | 48% | 1017.1 hPa | 0 mm | - | - | - |
| 1777686483 | 13.33° C | 47% | 1017.1 hPa | 0 mm | - | - | - |
| 1777685582 | 13.33° C | 47% | 1017.1 hPa | 0 mm | - | - | - |
| 1777684682 | 13.89° C | 45% | 1017.3 hPa | 0 mm | - | - | - |
| 1777683783 | 13.89° C | 45% | 1017.4 hPa | 0 mm | - | - | - |
| 1777682882 | 14.44° C | 44% | 1017.5 hPa | 0 mm | - | - | - |
| 1777681983 | 14.44° C | 44% | 1017.7 hPa | 0 mm | - | - | - |
| 1777681083 | 15° C | 43% | 1017.7 hPa | 0 mm | - | - | - |
| 1777680183 | 15° C | 42% | 1017.8 hPa | 0 mm | - | - | - |
| 1777679282 | 15° C | 42% | 1018 hPa | 0 mm | - | - | - |
| 1777678382 | 15.56° C | 42% | 1018.1 hPa | 0 mm | - | - | - |
| 1777677483 | 15.56° C | 41% | 1018.2 hPa | 0 mm | - | - | - |
| 1777676583 | 16.11° C | 39% | 1018.2 hPa | 0 mm | - | - | - |
| 1777675684 | 16.67° C | 38% | 1018.3 hPa | 0 mm | - | - | - |
| 1777674783 | 16.67° C | 38% | 1018.4 hPa | 0 mm | - | - | - |
| 1777673883 | 17.22° C | 37% | 1018.3 hPa | 0 mm | - | - | - |
* Rain latest hour (hover to see other rain measurements)
** Current wind speed in m/s (hover to see current wind gust speed)